TimeCDT,TemperatureF,Dew PointF,Humidity,Sea Level PressureIn,VisibilityMPH,Wind Direction,Wind SpeedMPH,Gust SpeedMPH,PrecipitationIn,Events,Conditions,WindDirDegrees,DateUTC
12:53 AM,60.1,50.0,69,29.99,10.0,South,5.8,-,N/A,,Clear,170,2012-10-04 05:53:00
1:53 AM,59.0,50.0,72,30.00,10.0,South,6.9,-,N/A,,Clear,170,2012-10-04 06:53:00
2:53 AM,59.0,50.0,72,30.01,10.0,South,8.1,-,N/A,,Clear,180,2012-10-04 07:53:00
3:53 AM,60.1,51.1,72,29.99,10.0,South,11.5,-,N/A,,Clear,180,2012-10-04 08:53:00
4:53 AM,60.1,51.1,72,30.01,10.0,SSW,11.5,-,N/A,,Clear,200,2012-10-04 09:53:00
5:53 AM,60.1,52.0,75,30.06,10.0,SSW,8.1,-,N/A,,Mostly Cloudy,210,2012-10-04 10:53:00
6:53 AM,57.9,51.1,78,30.10,10.0,WNW,8.1,-,N/A,,Clear,300,2012-10-04 11:53:00
7:53 AM,55.0,44.1,67,30.10,10.0,North,5.8,-,N/A,,Clear,360,2012-10-04 12:53:00
8:53 AM,57.0,44.1,62,30.14,10.0,NNW,8.1,-,N/A,,Clear,330,2012-10-04 13:53:00
9:53 AM,57.0,43.0,59,30.18,10.0,NNW,17.3,24.2,N/A,,Clear,330,2012-10-04 14:53:00
10:53 AM,57.9,44.1,60,30.19,10.0,North,16.1,23.0,N/A,,Mostly Cloudy,350,2012-10-04 15:53:00
11:53 AM,57.9,45.0,62,30.21,10.0,NNW,18.4,24.2,N/A,,Mostly Cloudy,330,2012-10-04 16:53:00
12:53 PM,59.0,44.1,58,30.22,10.0,North,17.3,-,N/A,,Mostly Cloudy,350,2012-10-04 17:53:00
1:53 PM,55.9,42.1,60,30.23,10.0,NNW,15.0,-,N/A,,Overcast,340,2012-10-04 18:53:00
2:53 PM,54.0,41.0,62,30.23,10.0,North,18.4,-,N/A,,Mostly Cloudy,350,2012-10-04 19:53:00
3:53 PM,50.0,37.9,63,30.24,10.0,NNW,17.3,-,N/A,,Overcast,340,2012-10-04 20:53:00
4:53 PM,48.9,37.0,64,30.25,10.0,North,11.5,-,N/A,,Overcast,350,2012-10-04 21:53:00
5:53 PM,48.9,37.0,64,30.24,10.0,North,10.4,-,N/A,,Overcast,10,2012-10-04 22:53:00
6:53 PM,48.9,37.9,66,30.24,10.0,NNE,8.1,-,N/A,,Overcast,20,2012-10-04 23:53:00
7:53 PM,48.9,42.1,77,30.24,10.0,NNE,3.5,-,0.00,,Overcast,20,2012-10-05 00:53:00
8:53 PM,48.9,43.0,80,30.24,10.0,NNE,3.5,-,0.03,Rain,Light Rain,30,2012-10-05 01:53:00
9:53 PM,48.9,42.1,77,30.23,10.0,North,5.8,-,0.00,,Overcast,350,2012-10-05 02:53:00
10:53 PM,48.9,43.0,80,30.25,10.0,North,5.8,-,N/A,,Overcast,10,2012-10-05 03:53:00
11:53 PM,50.0,42.1,74,30.25,10.0,NNW,5.8,-,N/A,,Overcast,340,2012-10-05 04:53:00